Location: Ab? ar R?sh Ba?r?
(24.1861°N, 32.8847°E)
Time: 10:17:02
(UTC+00:00)

USA 229 DEB - Pass Details

Date: 24 October 2021
Orbit: 944 x 1268 km, 63.4° (Epoch: 25 November)

Event Time Altitude Azimuth Distance (km) Brightness Sun altitude
Rises 15:30:50 0° 206° (SSW) 3,593 7.1 -4.5°
Reaches altitude 10° 15:33:20 10° 207° (SSW) 2,652 6.4 -5.0°
Maximum altitude 15:39:30 87° 295° (WNW) 966 3.6 -6.4°
Drops below altitude 10° 15:45:57 10° 26° (NNE) 2,771 5.5 -7.9°
Sets 15:48:37 0° 27° (NNE) 3,763 6.2 -8.5°
